| time (UTC) | temp F | wind direction | speed MPH | gust MPH | rain 1hr in | rain 24hr in | rain mn in | humidity % | barometer mb |
| 20260902141541 | 62 | 95 | 0.0 | 2.0 | 0.00 | 0.15 | 0.01 | 97 | 1020.6 |
| 20260902140042 | 62 | 95 | 0.0 | 2.0 | 0.00 | 0.15 | 0.01 | 97 | 1020.8 |
| 20260902134541 | 62 | 95 | 0.0 | 3.0 | 0.00 | 0.15 | 0.01 | 97 | 1020.6 |
| 20260902133038 | 62 | 95 | 0.0 | 4.0 | 0.00 | 0.15 | 0.01 | 97 | 1020.3 |
| 20260902131547 | 62 | 95 | 0.0 | 0.0 | 0.00 | 0.15 | 0.01 | 98 | 1020.1 |
| 20260902130049 | 62 | 95 | 0.0 | 2.0 | 0.00 | 0.15 | 0.01 | 97 | 1019.9 |
| 20260902124534 | 62 | 95 | 0.0 | 1.0 | 0.00 | 0.15 | 0.01 | 98 | 1020.1 |
| 20260902123032 | 62 | 95 | 1.0 | 4.0 | 0.00 | 0.15 | 0.01 | 98 | 1019.7 |
| 20260902121531 | 62 | 89 | 1.0 | 3.0 | 0.00 | 0.15 | 0.01 | 98 | 1019.7 |
| 20260902120030 | 62 | 89 | 1.0 | 4.0 | 0.00 | 0.15 | 0.01 | 98 | 1019.7 |
| 20260902114532 | 63 | 99 | 0.0 | 2.0 | 0.00 | 0.15 | 0.01 | 98 | 1019.8 |
| 20260902113027 | 63 | 99 | 0.0 | 2.0 | 0.00 | 0.15 | 0.01 | 98 | 1019.8 |
| 20260902111529 | 63 | 99 | 0.0 | 1.0 | 0.01 | 0.15 | 0.01 | 98 | 1019.8 |
| 20260902110040 | 63 | 99 | 0.0 | 2.0 | 0.01 | 0.16 | 0.01 | 98 | 1019.4 |
| 20260902104534 | 63 | 99 | 0.0 | 0.0 | 0.01 | 0.16 | 0.01 | 98 | 1019.5 |
| 20260902103032 | 63 | 99 | 0.0 | 0.0 | 0.01 | 0.16 | 0.01 | 98 | 1019.5 |
| 20260902101521 | 63 | 99 | 0.0 | 0.0 | 0.00 | 0.15 | 0.00 | 98 | 1019.3 |
| 20260902100022 | 63 | 99 | 0.0 | 0.0 | 0.00 | 0.15 | 0.00 | 98 | 1019.2 |
| 20260902094519 | 63 | 99 | 0.0 | 0.0 | 0.00 | 0.15 | 0.00 | 98 | 1019.2 |
| 20260902093024 | 63 | 99 | 0.0 | 1.0 | 0.00 | 0.15 | 0.00 | 98 | 1019.1 |
| 20260902091517 | 63 | 99 | 0.0 | 2.0 | 0.00 | 0.15 | 0.00 | 98 | 1018.9 |
| 20260902090016 | 63 | 99 | 0.0 | 1.0 | 0.00 | 0.15 | 0.00 | 98 | 1018.8 |
| 20260902084515 | 63 | 99 | 0.0 | 0.0 | 0.00 | 0.15 | 0.00 | 98 | 1018.9 |
| 20260902083014 | 63 | 99 | 0.0 | 0.0 | 0.00 | 0.15 | 0.00 | 98 | 1018.8 |
| 20260902081512 | 63 | 99 | 0.0 | 0.0 | 0.00 | 0.15 | 0.00 | 97 | 1018.4 |
| 20260902080019 | 63 | 99 | 0.0 | 3.0 | 0.00 | 0.15 | 0.00 | 97 | 1018.3 |
| 20260902074511 | 63 | 99 | 0.0 | 3.0 | 0.00 | 0.15 | 0.00 | 97 | 1018.2 |
| 20260902073024 | 63 | 99 | 0.0 | 2.0 | 0.00 | 0.15 | 0.00 | 97 | 1018.1 |
| 20260902071512 | 63 | 99 | 0.0 | 0.0 | 0.00 | 0.15 | 0.00 | 97 | 1018.0 |
| 20260902070008 | 63 | 99 | 0.0 | 0.0 | 0.00 | 0.16 | 0.00 | 97 | 1018.2 |
| 20260902064507 | 63 | 99 | 0.0 | 1.0 | 0.00 | 0.16 | 0.00 | 97 | 1018.2 |
| 20260902063013 | 63 | 99 | 0.0 | 1.0 | 0.00 | 0.16 | 0.00 | 97 | 1018.3 |
| 20260902061506 | 63 | 99 | 0.0 | 0.0 | 0.00 | 0.16 | 0.00 | 97 | 1018.5 |
| 20260902060007 | 63 | 99 | 0.0 | 0.0 | 0.00 | 0.21 | 0.00 | 97 | 1018.6 |
| 20260902054510 | 63 | 99 | 0.0 | 0.0 | 0.00 | 0.21 | 0.00 | 97 | 1018.5 |
| 20260902053004 | 63 | 99 | 0.0 | 1.0 | 0.00 | 0.21 | 0.00 | 97 | 1018.3 |
| 20260902051503 | 64 | 99 | 0.0 | 2.0 | 0.00 | 0.21 | 0.00 | 97 | 1018.4 |
| 20260902050101 | 64 | 99 | 0.0 | 4.0 | 0.00 | 0.21 | 0.00 | 97 | 1018.3 |
| 20260902044600 | 64 | 95 | 0.0 | 3.0 | 0.00 | 0.44 | 0.00 | 96 | 1018.3 |
| 20260902043058 | 64 | 95 | 0.0 | 3.0 | 0.00 | 0.44 | 0.00 | 96 | 1018.3 |
| 20260902041608 | 64 | 87 | 1.0 | 3.0 | 0.00 | 0.44 | 0.00 | 96 | 1018.3 |
| 20260902040055 | 64 | 88 | 1.0 | 3.0 | 0.00 | 0.44 | 0.00 | 96 | 1018.1 |
| 20260902034555 | 64 | 88 | 0.0 | 3.0 | 0.00 | 0.54 | 0.44 | 96 | 1017.9 |
| 20260902033055 | 64 | 88 | 0.0 | 7.0 | 0.00 | 0.54 | 0.44 | 96 | 1017.5 |
| 20260902031549 | 65 | 78 | 1.0 | 4.0 | 0.00 | 0.54 | 0.44 | 96 | 1017.2 |
| 20260902030048 | 65 | 96 | 0.0 | 3.0 | 0.00 | 0.54 | 0.44 | 97 | 1017.3 |
| 20260902024545 | 65 | 98 | 1.0 | 7.0 | 0.00 | 0.54 | 0.44 | 96 | 1017.0 |
| 20260902023046 | 66 | 101 | 1.0 | 6.0 | 0.00 | 0.54 | 0.44 | 96 | 1016.6 |
| 20260902021548 | 66 | 85 | 1.0 | 7.0 | 0.00 | 0.54 | 0.44 | 96 | 1016.5 |
| 20260902020039 | 67 | 71 | 1.0 | 4.0 | 0.00 | 0.54 | 0.44 | 96 | 1016.3 |
| 20260902014546 | 67 | 93 | 2.0 | 5.0 | 0.00 | 0.54 | 0.44 | 96 | 1016.3 |
| 20260902013036 | 68 | 106 | 2.0 | 6.0 | 0.00 | 0.54 | 0.44 | 96 | 1016.1 |
| 20260902011534 | 68 | 96 | 1.0 | 6.0 | 0.00 | 0.54 | 0.44 | 96 | 1015.7 |
| 20260902010035 | 69 | 92 | 0.0 | 5.0 | 0.01 | 0.54 | 0.44 | 96 | 1015.5 |
| 20260902004534 | 70 | 81 | 1.0 | 7.0 | 0.01 | 0.54 | 0.44 | 95 | 1015.2 |
| 20260902003033 | 71 | 79 | 0.0 | 5.0 | 0.01 | 0.54 | 0.44 | 95 | 1015.2 |
| 20260902001532 | 73 | 83 | 0.0 | 3.0 | 0.01 | 0.54 | 0.44 | 96 | 1014.9 |
| 20260902000032 | 73 | 300 | 0.0 | 1.0 | 0.00 | 0.53 | 0.43 | 96 | 1014.3 |
| 20260901234531 | 74 | 300 | 0.0 | 2.0 | 0.00 | 0.53 | 0.43 | 96 | 1014.1 |
| 20260901233030 | 75 | 72 | 0.0 | 2.0 | 0.00 | 0.53 | 0.43 | 96 | 1014.3 |
| 20260901231531 | 75 | 72 | 0.0 | 0.0 | 0.00 | 0.53 | 0.43 | 96 | 1014.3 |
| 20260901230035 | 75 | 72 | 0.0 | 0.0 | 0.00 | 0.53 | 0.43 | 96 | 1013.8 |
| 20260901224529 | 75 | 72 | 0.0 | 0.0 | 0.00 | 0.53 | 0.43 | 96 | 1014.0 |
| 20260901223029 | 76 | 72 | 0.0 | 0.0 | 0.00 | 0.53 | 0.43 | 96 | 1013.5 |
| 20260901221533 | 76 | 72 | 0.0 | 0.0 | 0.00 | 0.53 | 0.43 | 95 | 1013.5 |
| 20260901220052 | 76 | 72 | 0.0 | 0.0 | 0.00 | 0.53 | 0.43 | 95 | 1013.4 |
| 20260901214526 | 76 | 72 | 0.0 | 0.0 | 0.00 | 0.53 | 0.43 | 95 | 1013.5 |
| 20260901213057 | 76 | 72 | 0.0 | 1.0 | 0.00 | 0.53 | 0.43 | 94 | 1013.4 |
| 20260901211525 | 76 | 72 | 0.0 | 1.0 | 0.00 | 0.53 | 0.43 | 95 | 1013.4 |
| 20260901210024 | 76 | 72 | 0.0 | 0.0 | 0.00 | 0.53 | 0.43 | 95 | 1013.4 |
| 20260901204533 | 76 | 72 | 0.0 | 0.0 | 0.00 | 0.53 | 0.43 | 96 | 1013.4 |
| 20260901203043 | 75 | 72 | 0.0 | 0.0 | 0.00 | 0.53 | 0.43 | 96 | 1013.5 |
| 20260901201520 | 75 | 72 | 0.0 | 0.0 | 0.01 | 0.53 | 0.43 | 96 | 1013.4 |
| 20260901200018 | 75 | 72 | 0.0 | 0.0 | 0.01 | 0.53 | 0.43 | 96 | 1013.4 |
| 20260901194513 | 75 | 72 | 0.0 | 1.0 | 0.01 | 0.53 | 0.43 | 96 | 1013.7 |
| 20260901193009 | 74 | 72 | 0.0 | 0.0 | 0.01 | 0.53 | 0.43 | 96 | 1013.7 |
| 20260901191504 | 74 | 72 | 0.0 | 0.0 | 0.00 | 0.52 | 0.42 | 97 | 1013.6 |
| 20260901190007 | 74 | 72 | 0.0 | 0.0 | 0.00 | 0.52 | 0.42 | 97 | 1013.8 |
| 20260901184502 | 74 | 72 | 0.0 | 2.0 | 0.00 | 0.52 | 0.42 | 97 | 1013.9 |
| 20260901183001 | 74 | 72 | 0.0 | 0.0 | 0.00 | 0.52 | 0.42 | 98 | 1013.8 |
| 20260901181559 | 73 | 72 | 0.0 | 0.0 | 0.00 | 0.52 | 0.42 | 98 | 1013.9 |
| 20260901180056 | 73 | 72 | 0.0 | 1.0 | 0.00 | 0.52 | 0.42 | 99 | 1013.7 |
| 20260901174551 | 73 | 72 | 0.0 | 1.0 | 0.01 | 0.52 | 0.42 | 99 | 1013.9 |
| 20260901173055 | 72 | 72 | 0.0 | 1.0 | 0.02 | 0.52 | 0.42 | 99 | 1013.8 |
| 20260901171543 | 72 | 87 | 0.0 | 2.0 | 0.02 | 0.52 | 0.42 | 99 | 1014.0 |
| 20260901170040 | 71 | 87 | 0.0 | 2.0 | 0.02 | 0.52 | 0.42 | 98 | 1014.4 |
| 20260901164536 | 70 | 87 | 0.0 | 0.0 | 0.01 | 0.51 | 0.41 | 98 | 1014.3 |
| 20260901163035 | 70 | 87 | 0.0 | 0.0 | 0.00 | 0.50 | 0.40 | 98 | 1014.8 |
| 20260901161537 | 71 | 87 | 0.0 | 0.0 | 0.01 | 0.50 | 0.40 | 98 | 1014.8 |
| 20260901160034 | 70 | 87 | 0.0 | 0.0 | 0.03 | 0.50 | 0.40 | 99 | 1014.5 |
| 20260901154536 | 70 | 87 | 0.0 | 0.0 | 0.05 | 0.50 | 0.40 | 98 | 1014.7 |
| 20260901153033 | 70 | 87 | 0.0 | 0.0 | 0.08 | 0.50 | 0.40 | 98 | 1014.8 |
| 20260901151527 | 70 | 87 | 0.0 | 0.0 | 0.07 | 0.49 | 0.39 | 98 | 1015.7 |
| 20260901150026 | 70 | 87 | 0.0 | 2.0 | 0.07 | 0.47 | 0.37 | 98 | 1015.7 |
| 20260901144525 | 70 | 87 | 0.0 | 0.0 | 0.05 | 0.45 | 0.35 | 98 | 1015.6 |
| 20260901143024 | 70 | 87 | 0.0 | 0.0 | 0.02 | 0.42 | 0.32 | 98 | 1015.3 |